Location: Warszawa
(52.2500°N, 21.0000°E)
Time: 20:41:19
(UTC+02:00)

A-11 Canister half - Pass Details

Date: 10 February 2023
Orbit: 1526 x 1682 km, 47.3° (Epoch: 27 March)

Event Time Altitude Azimuth Distance (km) Brightness Sun altitude
Exits shadow 03:30:35 31° 179° (S) 2,416 9.8 -32.5°
Maximum altitude 03:33:24 38° 146° (SE) 2,190 9.8 -32.1°
Drops below altitude 10° 03:41:41 10° 83° (E) 3,712 11.9 -30.9°
Sets 03:45:00 0° 76° (ENE) 4,709 12.7 -30.4°
